Location: Dal�� Lhota
(48.7500°N, 14.0167°E)
Time: 02:29:58
(UTC+00:00)

Cosmos 1627 Rocket - Pass Details

Date: 24 September 2020
Orbit: 951 x 1004 km, 82.9° (Epoch: 29 October)

Event Time Altitude Azimuth Distance (km) Brightness Sun altitude
Rises 18:47:05 0° 350° (N) 3,739 8.0 -18.6°
Reaches altitude 10° 18:49:38 10° 352° (N) 2,788 7.3 -19.0°
Maximum altitude 18:56:04 84° 81° (E) 1,015 4.5 -20.0°
Enters shadow 19:01:25 16° 170° (S) 2,379 6.2 -20.8°
